Location: Prague
(50.0830°N, 14.4670°E)
Time: 15:01:52
(UTC+01:00)

Oscar 19 - Visible Passes

Search period start: 25 March 2023 00:00
Search period end: 04 April 2023 01:00
Orbit: 772 x 790 km, 98.8° (Epoch: 25 March)

Date Brightness Start Highest point End Pass type
(mag) Time Alt. Az. Time Alt. Az. Time Alt. Az.
25 Mar 13.3 02:43:07 10° ENE 02:45:26 13° E 02:47:46 10° ESE visible
25 Mar 10.7 04:20:21 10° NNE 04:25:31 82° ESE 04:30:41 10° SSW visible
26 Mar 11.6 04:48:20 10° NNE 04:53:16 45° E 04:58:11 10° S visible
27 Mar 12.7 04:16:38 10° NE 04:20:51 25° E 04:25:04 10° SSE visible
27 Mar 10.8 05:55:25 10° N 06:00:26 54° WNW 06:05:26 10° SW visible
28 Mar 13.3 03:45:44 10° ENE 03:48:17 14° E 03:50:49 10° ESE visible
28 Mar 10.7 05:23:09 10° NNE 05:28:19 86° ESE 05:33:30 10° SSW visible
29 Mar 11.6 04:51:06 10° NNE 04:56:05 47° E 05:01:02 10° S visible
30 Mar 12.6 04:19:22 10° NE 04:23:40 26° E 04:27:58 10° SSE visible
30 Mar 10.9 05:58:13 10° N 06:03:13 51° WNW 06:08:12 10° SW visible
31 Mar 13.3 03:48:21 10° NE 03:51:07 14° E 03:53:51 10° ESE visible
31 Mar 10.7 05:25:56 10° NNE 05:31:07 89° E 05:36:18 10° SSW visible
01 Apr 11.5 04:53:52 10° NNE 04:58:52 49° E 05:03:52 10° S visible
02 Apr 12.5 04:22:06 10° NE 04:26:28 27° E 04:30:51 10° SSE visible
02 Apr 10.9 06:01:01 10° N 06:05:59 49° WNW 06:10:57 10° SW visible
03 Apr 13.3 03:50:59 10° NE 03:53:55 15° E 03:56:51 10° ESE visible
03 Apr 10.6 05:28:43 10° NNE 05:33:54 88° WNW 05:39:04 10° SSW visible
